Starlink 31088

operational
NORAD ID: 58604 Int'l Des: 2023-200 Owner: SPXS Country: US Constellation: starlink
LEOCIRCULAR

About Starlink 31088

Description loading...

Live Position

Loading 3D Globe...

Upcoming Passes

Altitude History

Altitude vs Time

uPlot chart will show altitude changes over time

Two-Line Element Set

1 58604U 23200R 26094.52514023 -.00002263 00000-0 -72773-4 0 9998
2 58604 43.0085 22.7956 0001426 279.1046 80.9645 15.27554709127566
Epoch: Apr 4, 2026 • Age: 21 hours

Current Status

Altitude 485.8 km
Velocity 7.62 km/s
Sub-Earth Point -14.39°S, 128.27°W
Launch Date Dec 19, 2023
Age 2.2 years
Type internet

Technical Details

Classification Payload
Mass 730.00 kg
Dry Mass 700.00 kg
Total Mass 730.00 kg
Length 0.30 m
Diameter 4.10 m
Span 29.00 m
Shape Box + pan
Manufacturer SPXS
Bus Type Starlink V2M
Phase Status In Orbit
Owner/State SPXS/US

Large Constellations

Loading constellations...